Location: Coupvray
(48.8929°N, 2.7967°E)
Time: 15:00:51
(UTC+00:00)

N. Korean satellite - Visible Passes

Search period start: 18 September 2020 00:00
Search period end: 28 September 2020 00:00
Orbit: 455 x 503 km, 97.2° (Epoch: 17 September)

Date Brightness Start Highest point End Pass type
(mag) Time Alt. Az. Time Alt. Az. Time Alt. Az.
19 Sep 9.1 04:49:21 10° NE 04:52:35 27° E 04:55:45 10° SSE visible
20 Sep 9.9 04:24:12 10° NE 04:26:23 15° E 04:28:31 10° SE visible
23 Sep 9.6 04:38:57 10° NE 04:41:50 21° E 04:44:40 10° SE visible
24 Sep 10.2 04:14:22 10° ENE 04:15:34 11° E 04:16:46 10° ESE visible
26 Sep 8.8 04:53:56 10° NNE 04:57:14 31° E 05:00:27 10° SSE visible
27 Sep 9.8 04:28:38 10° NE 04:31:01 16° E 04:33:21 10° SE visible
